RYR71QD LIBD-LZIB

Flight info

Callsign RYR71QD
Flight time 1h 19m
Altitude 38000
Route BANAV DCT AIOSA DCT RUDIK DCT INSAX DCT NIGSI DCT BEGLA DCT KUVEX
Aircraft B738/M-SDE3FGILRWY/SB1

Departure

Time 2026-04-21 15:04
Airport Bari Karol Wojtyła International Airport (LIBD)

Arrival

Time 2026-04-21 16:23
Airport M. R. Štefánik Airport (LZIB)
Time Latitude Longitude Altitude Speed Heading
2026-04-21 14:30 41.13573 16.76514 135 ft 0 kts 159°
2026-04-21 14:55 41.13576 16.76512 135 ft 3 kts 159°
2026-04-21 14:55 41.13584 16.76508 135 ft 0 kts 159°
2026-04-21 14:55 41.13602 16.76500 135 ft 2 kts 159°
2026-04-21 14:56 41.13624 16.76492 135 ft 4 kts 182°
2026-04-21 14:56 41.13647 16.76502 135 ft 4 kts 226°
2026-04-21 14:56 41.13651 16.76507 135 ft 4 kts 236°
2026-04-21 14:56 41.13641 16.76478 135 ft 1 kts 249°
2026-04-21 14:57 41.13641 16.76477 135 ft 1 kts 249°
2026-04-21 14:59 41.13641 16.76475 135 ft 1 kts 249°
2026-04-21 14:59 41.13635 16.76455 135 ft 4 kts 249°
2026-04-21 15:00 41.13619 16.76401 135 ft 8 kts 249°
2026-04-21 15:00 41.13595 16.76313 135 ft 12 kts 249°
2026-04-21 15:00 41.13563 16.76201 135 ft 15 kts 249°
2026-04-21 15:00 41.13587 16.76075 135 ft 16 kts 317°
2026-04-21 15:01 41.13637 16.75960 135 ft 15 kts 261°
2026-04-21 15:01 41.13599 16.75834 136 ft 14 kts 249°
2026-04-21 15:01 41.13565 16.75707 137 ft 16 kts 251°
2026-04-21 15:01 41.13525 16.75563 138 ft 17 kts 249°
2026-04-21 15:02 41.13481 16.75414 141 ft 19 kts 248°
2026-04-21 15:02 41.13427 16.75231 142 ft 23 kts 252°
2026-04-21 15:02 41.13371 16.75021 147 ft 26 kts 249°
2026-04-21 15:02 41.13379 16.74795 146 ft 27 kts 301°
2026-04-21 15:03 41.13493 16.74785 138 ft 19 kts 68°
2026-04-21 15:03 41.13586 16.75116 136 ft 72 kts 69°
2026-04-21 15:03 41.13840 16.76026 136 ft 136 kts 70°
2026-04-21 15:03 41.14202 16.77350 527 ft 157 kts 70°
2026-04-21 15:04 41.14589 16.78730 1342 ft 162 kts 69°
2026-04-21 15:04 41.15021 16.80195 1888 ft 184 kts 68°
2026-04-21 15:04 41.15526 16.81918 2164 ft 216 kts 68°
2026-04-21 15:04 41.16093 16.83874 2498 ft 238 kts 68°
2026-04-21 15:05 41.16707 16.86005 3000 ft 254 kts 68°
2026-04-21 15:05 41.18345 16.90313 4551 ft 269 kts 42°
2026-04-21 15:05 41.19892 16.91680 5376 ft 271 kts 20°
2026-04-21 15:06 41.21727 16.92202 6095 ft 272 kts 352°
2026-04-21 15:06 41.23565 16.91694 6958 ft 270 kts 340°
2026-04-21 15:06 41.25376 16.91017 7872 ft 271 kts 339°
2026-04-21 15:06 41.27200 16.90329 8759 ft 274 kts 339°
2026-04-21 15:07 41.29044 16.89643 9647 ft 277 kts 339°
2026-04-21 15:07 41.30920 16.88949 10372 ft 285 kts 340°
2026-04-21 15:07 41.32921 16.88206 10585 ft 312 kts 340°
2026-04-21 15:07 41.35078 16.87410 10948 ft 329 kts 340°
2026-04-21 15:08 41.37349 16.86765 11647 ft 340 kts 352°
2026-04-21 15:08 41.39729 16.87114 12467 ft 352 kts 12°
2026-04-21 15:08 41.42050 16.88193 13336 ft 355 kts 16°
2026-04-21 15:08 41.44375 16.89361 14073 ft 359 kts 16°
2026-04-21 15:09 41.46728 16.90539 14779 ft 363 kts 15°
2026-04-21 15:09 41.49107 16.91702 15488 ft 366 kts 15°
2026-04-21 15:09 41.51512 16.92863 16185 ft 369 kts 14°
2026-04-21 15:09 41.53946 16.93991 16868 ft 372 kts 12°
2026-04-21 15:10 41.56403 16.94953 17560 ft 374 kts 10°
2026-04-21 15:10 41.58955 16.95881 18249 ft 377 kts
2026-04-21 15:10 41.61463 16.96790 18835 ft 380 kts
2026-04-21 15:10 41.64019 16.97733 19442 ft 383 kts
2026-04-21 15:11 41.66597 16.98701 20032 ft 386 kts
2026-04-21 15:11 41.69194 16.99685 20610 ft 390 kts
2026-04-21 15:11 41.71808 17.00711 21179 ft 395 kts 13°
2026-04-21 15:11 41.74262 17.02534 21682 ft 415 kts 33°
2026-04-21 15:12 41.76485 17.05120 22272 ft 420 kts 36°
2026-04-21 15:12 41.78624 17.07738 22768 ft 425 kts 36°
2026-04-21 15:12 41.80817 17.10431 23251 ft 429 kts 36°
2026-04-21 15:12 41.83039 17.13131 23723 ft 432 kts 36°
2026-04-21 15:13 41.85282 17.15823 24173 ft 434 kts 35°
2026-04-21 15:13 41.87545 17.18522 24629 ft 436 kts 35°
2026-04-21 15:13 41.89844 17.21186 25071 ft 435 kts 29°
2026-04-21 15:13 41.92477 17.23005 25448 ft 420 kts
2026-04-21 15:14 41.95299 17.23706 25917 ft 408 kts 355°
2026-04-21 15:14 41.98077 17.23427 26340 ft 398 kts 342°
2026-04-21 15:14 42.00788 17.22673 26748 ft 398 kts 341°
2026-04-21 15:14 42.03499 17.21845 27130 ft 401 kts 341°
2026-04-21 15:15 42.06225 17.20995 27523 ft 403 kts 341°
2026-04-21 15:15 42.08963 17.20146 27917 ft 405 kts 341°
2026-04-21 15:15 42.11722 17.19303 28309 ft 407 kts 341°
2026-04-21 15:15 42.14492 17.18468 28676 ft 410 kts 341°
2026-04-21 15:16 42.17285 17.17635 29037 ft 412 kts 341°
2026-04-21 15:16 42.20090 17.16804 29393 ft 414 kts 341°
2026-04-21 15:16 42.22914 17.15970 29747 ft 416 kts 341°
2026-04-21 15:16 42.25746 17.15135 30075 ft 418 kts 341°
2026-04-21 15:17 42.28594 17.14295 30363 ft 419 kts 342°
2026-04-21 15:17 42.31441 17.13456 30729 ft 418 kts 342°
2026-04-21 15:17 42.34278 17.12620 31146 ft 417 kts 342°
2026-04-21 15:17 42.37108 17.11785 31536 ft 416 kts 342°
2026-04-21 15:18 42.39930 17.10950 31885 ft 415 kts 342°
2026-04-21 15:18 42.42754 17.10113 32242 ft 415 kts 342°
2026-04-21 15:18 42.45566 17.09279 32619 ft 413 kts 342°
2026-04-21 15:18 42.48374 17.08446 32999 ft 412 kts 342°
2026-04-21 15:19 42.51174 17.07613 33349 ft 412 kts 342°
2026-04-21 15:19 42.53968 17.06782 33698 ft 411 kts 341°
2026-04-21 15:19 42.56758 17.05951 34038 ft 410 kts 341°
2026-04-21 15:19 42.59539 17.05122 34304 ft 410 kts 341°
2026-04-21 15:20 42.62326 17.04289 34536 ft 411 kts 341°
2026-04-21 15:20 42.65119 17.03454 34765 ft 411 kts 341°
2026-04-21 15:20 42.67912 17.02619 35024 ft 411 kts 341°
2026-04-21 15:20 42.70705 17.01783 35259 ft 411 kts 341°
2026-04-21 15:21 42.73504 17.00944 35488 ft 412 kts 341°
2026-04-21 15:21 42.76301 17.00106 35721 ft 412 kts 341°
2026-04-21 15:21 42.79100 16.99266 35959 ft 412 kts 341°
2026-04-21 15:21 42.81900 16.98425 36175 ft 413 kts 341°
2026-04-21 15:22 42.84673 16.97592 36390 ft 413 kts 341°
2026-04-21 15:22 42.87515 16.96737 36618 ft 413 kts 341°
2026-04-21 15:22 42.90284 16.95903 36824 ft 413 kts 341°
2026-04-21 15:22 42.93092 16.95056 37028 ft 414 kts 341°
2026-04-21 15:23 42.95904 16.94207 37215 ft 414 kts 341°
2026-04-21 15:23 42.98721 16.93357 37437 ft 415 kts 341°
2026-04-21 15:23 43.01536 16.92506 37627 ft 415 kts 341°
2026-04-21 15:23 43.04350 16.91655 37805 ft 415 kts 341°
2026-04-21 15:24 43.07178 16.90798 37935 ft 417 kts 341°
2026-04-21 15:24 43.10019 16.89936 37934 ft 419 kts 341°
2026-04-21 15:24 43.15699 16.88213 37948 ft 416 kts 341°
2026-04-21 15:25 43.21331 16.86504 37942 ft 413 kts 341°
2026-04-21 15:25 43.26922 16.84801 37942 ft 410 kts 341°
2026-04-21 15:26 43.32485 16.83102 37943 ft 409 kts 341°
2026-04-21 15:26 43.38035 16.81403 37942 ft 409 kts 341°
2026-04-21 15:27 43.43592 16.79698 37949 ft 410 kts 341°
2026-04-21 15:27 43.49172 16.77983 37939 ft 412 kts 341°
2026-04-21 15:28 43.54783 16.76257 37948 ft 414 kts 341°
2026-04-21 15:28 43.60433 16.74515 37938 ft 417 kts 341°
2026-04-21 15:29 43.66105 16.72764 37949 ft 419 kts 341°
2026-04-21 15:29 43.71796 16.71004 37936 ft 420 kts 341°
2026-04-21 15:30 43.77503 16.69236 37934 ft 421 kts 341°
2026-04-21 15:30 43.83217 16.67462 37938 ft 420 kts 342°
2026-04-21 15:31 43.88881 16.65700 37950 ft 420 kts 342°
2026-04-21 15:31 43.94576 16.63925 37945 ft 419 kts 342°
2026-04-21 15:32 44.00168 16.62178 37951 ft 416 kts 342°
2026-04-21 15:32 44.05813 16.60411 37954 ft 416 kts 342°
2026-04-21 15:33 44.11448 16.58644 37961 ft 415 kts 341°
2026-04-21 15:33 44.17071 16.56877 37982 ft 414 kts 341°
2026-04-21 15:34 44.22700 16.55103 37970 ft 415 kts 341°
2026-04-21 15:34 44.28335 16.53325 38000 ft 415 kts 341°
2026-04-21 15:35 44.33978 16.51541 38012 ft 416 kts 341°
2026-04-21 15:35 44.39630 16.49751 37993 ft 417 kts 341°
2026-04-21 15:36 44.45290 16.47955 38029 ft 417 kts 341°
2026-04-21 15:36 44.50966 16.46149 38027 ft 419 kts 341°
2026-04-21 15:37 44.56657 16.44336 38034 ft 420 kts 341°
2026-04-21 15:37 44.62366 16.42513 38038 ft 421 kts 341°
2026-04-21 15:38 44.68093 16.40680 38039 ft 423 kts 341°
2026-04-21 15:38 44.72865 16.39151 38033 ft 423 kts 341°
2026-04-21 15:39 44.78604 16.37309 38038 ft 423 kts 341°
2026-04-21 15:39 44.84347 16.35461 38041 ft 424 kts 341°
2026-04-21 15:40 44.90092 16.33608 38047 ft 423 kts 341°
2026-04-21 15:40 44.95827 16.31755 38050 ft 423 kts 341°
2026-04-21 15:41 45.01613 16.30189 38036 ft 427 kts 349°
2026-04-21 15:41 45.07538 16.29550 38047 ft 427 kts 350°
2026-04-21 15:42 45.13466 16.28982 38048 ft 426 kts 350°
2026-04-21 15:42 45.19378 16.28382 38036 ft 426 kts 350°
2026-04-21 15:43 45.25278 16.27756 38053 ft 425 kts 350°
2026-04-21 15:43 45.31170 16.27119 38049 ft 424 kts 350°
2026-04-21 15:44 45.37057 16.26481 38056 ft 424 kts 350°
2026-04-21 15:44 45.42935 16.25842 38047 ft 424 kts 350°
2026-04-21 15:45 45.48817 16.25202 38059 ft 424 kts 350°
2026-04-21 15:45 45.54701 16.24560 38055 ft 424 kts 350°
2026-04-21 15:46 45.60591 16.23917 38072 ft 425 kts 350°
2026-04-21 15:46 45.66453 16.23275 38074 ft 425 kts 350°
2026-04-21 15:47 45.72399 16.22623 38080 ft 426 kts 350°
2026-04-21 15:47 45.78281 16.21976 38082 ft 427 kts 350°
2026-04-21 15:48 45.84213 16.21323 38077 ft 428 kts 351°
2026-04-21 15:48 45.90164 16.20666 38072 ft 429 kts 351°
2026-04-21 15:49 45.96124 16.20007 38068 ft 430 kts 351°
2026-04-21 15:49 46.02104 16.19344 38067 ft 431 kts 351°
2026-04-21 15:50 46.08090 16.18679 38067 ft 432 kts 351°
2026-04-21 15:50 46.14093 16.18011 38065 ft 433 kts 351°
2026-04-21 15:51 46.20103 16.17341 38066 ft 433 kts 351°
2026-04-21 15:51 46.26109 16.16670 38073 ft 433 kts 351°
2026-04-21 15:52 46.32115 16.15997 38071 ft 433 kts 351°
2026-04-21 15:52 46.38127 16.15321 38072 ft 433 kts 351°
2026-04-21 15:53 46.44140 16.14645 38073 ft 434 kts 351°
2026-04-21 15:53 46.50156 16.13966 38069 ft 434 kts 352°
2026-04-21 15:54 46.53195 16.13621 37590 ft 440 kts 352°
2026-04-21 15:54 46.56240 16.13276 37059 ft 438 kts 351°
2026-04-21 15:54 46.59272 16.12935 36554 ft 436 kts 351°
2026-04-21 15:54 46.62295 16.12593 35984 ft 436 kts 351°
2026-04-21 15:55 46.65320 16.12250 35372 ft 436 kts 351°
2026-04-21 15:55 46.68344 16.11906 34765 ft 436 kts 351°
2026-04-21 15:55 46.71377 16.11560 34122 ft 438 kts 351°
2026-04-21 15:55 46.74412 16.11214 33435 ft 438 kts 351°
2026-04-21 15:56 46.77438 16.10870 32957 ft 433 kts 351°
2026-04-21 15:56 46.80422 16.10532 32488 ft 428 kts 351°
2026-04-21 15:56 46.83368 16.10197 32030 ft 423 kts 351°
2026-04-21 15:56 46.86296 16.09862 31568 ft 419 kts 351°
2026-04-21 15:57 46.89187 16.09530 31126 ft 415 kts 351°
2026-04-21 15:57 46.92054 16.09201 30687 ft 411 kts 351°
2026-04-21 15:57 46.94893 16.08874 30253 ft 408 kts 351°
2026-04-21 15:57 46.97706 16.08550 29747 ft 404 kts 352°
2026-04-21 15:58 47.00491 16.08230 29274 ft 399 kts 352°
2026-04-21 15:58 47.03239 16.07907 28830 ft 394 kts 352°
2026-04-21 15:58 47.05952 16.07567 28385 ft 389 kts 351°
2026-04-21 15:58 47.08599 16.07228 27948 ft 385 kts 352°
2026-04-21 15:59 47.11292 16.06881 27510 ft 381 kts 352°
2026-04-21 15:59 47.13886 16.06547 27072 ft 378 kts 352°
2026-04-21 15:59 47.16493 16.06213 26655 ft 374 kts 352°
2026-04-21 15:59 47.19075 16.05883 26225 ft 371 kts 352°
2026-04-21 16:00 47.21637 16.05555 25807 ft 368 kts 352°
2026-04-21 16:00 47.24181 16.05230 25401 ft 365 kts 352°
2026-04-21 16:00 47.26705 16.04907 24989 ft 363 kts 352°
2026-04-21 16:00 47.29214 16.04586 24579 ft 360 kts 352°
2026-04-21 16:01 47.31703 16.04268 24161 ft 358 kts 352°
2026-04-21 16:01 47.34184 16.04215 23747 ft 360 kts
2026-04-21 16:01 47.36565 16.05388 23293 ft 365 kts 26°
2026-04-21 16:01 47.38598 16.07632 22866 ft 368 kts 44°
2026-04-21 16:02 47.40123 16.10658 22492 ft 367 kts 53°
2026-04-21 16:02 47.41509 16.13823 22064 ft 366 kts 54°
2026-04-21 16:02 47.42853 16.16991 21659 ft 363 kts 54°
2026-04-21 16:02 47.44185 16.20144 21253 ft 361 kts 54°
2026-04-21 16:03 47.45514 16.23274 20851 ft 359 kts 54°
2026-04-21 16:03 47.46842 16.26382 20455 ft 356 kts 54°
2026-04-21 16:03 47.48167 16.29467 20054 ft 354 kts 54°
2026-04-21 16:03 47.49485 16.32530 19673 ft 353 kts 54°
2026-04-21 16:04 47.50802 16.35583 19287 ft 351 kts 54°
2026-04-21 16:04 47.52111 16.38617 18901 ft 349 kts 54°
2026-04-21 16:04 47.53414 16.41639 18525 ft 348 kts 54°
2026-04-21 16:04 47.54710 16.44647 18111 ft 346 kts 54°
2026-04-21 16:05 47.56001 16.47649 17674 ft 345 kts 54°
2026-04-21 16:05 47.57286 16.50636 17272 ft 342 kts 54°
2026-04-21 16:05 47.58558 16.53600 16875 ft 340 kts 54°
2026-04-21 16:05 47.59821 16.56543 16490 ft 337 kts 54°
2026-04-21 16:06 47.61057 16.59429 16117 ft 335 kts 54°
2026-04-21 16:06 47.62316 16.62370 15736 ft 333 kts 54°
2026-04-21 16:06 47.63553 16.65263 15355 ft 331 kts 55°
2026-04-21 16:06 47.64762 16.68097 14994 ft 329 kts 55°
2026-04-21 16:07 47.65983 16.70958 14624 ft 327 kts 55°
2026-04-21 16:07 47.67194 16.73798 14255 ft 325 kts 55°
2026-04-21 16:07 47.68401 16.76632 13878 ft 324 kts 55°
2026-04-21 16:07 47.69600 16.79454 13463 ft 322 kts 55°
2026-04-21 16:08 47.71970 16.85038 12694 ft 317 kts 55°
2026-04-21 16:08 47.73142 16.87803 12323 ft 315 kts 55°
2026-04-21 16:08 47.74302 16.90537 11959 ft 312 kts 55°
2026-04-21 16:09 47.75454 16.93259 11597 ft 310 kts 55°
2026-04-21 16:09 47.76598 16.95965 11234 ft 308 kts 56°
2026-04-21 16:09 47.77732 16.98651 10873 ft 306 kts 55°
2026-04-21 16:09 47.78861 17.01326 10539 ft 303 kts 56°
2026-04-21 16:10 47.79962 17.03940 10384 ft 295 kts 55°
2026-04-21 16:10 47.81038 17.06496 10214 ft 287 kts 55°
2026-04-21 16:10 47.82082 17.08980 10081 ft 279 kts 55°
2026-04-21 16:10 47.83090 17.11405 9886 ft 274 kts 58°
2026-04-21 16:11 47.83858 17.14000 9568 ft 274 kts 67°
2026-04-21 16:11 47.84477 17.16673 9293 ft 272 kts 69°
2026-04-21 16:11 47.85070 17.19329 9005 ft 270 kts 69°
2026-04-21 16:11 47.85666 17.21961 8728 ft 267 kts 69°
2026-04-21 16:12 47.86062 17.23687 8549 ft 266 kts 68°
2026-04-21 16:12 47.86868 17.27150 8182 ft 263 kts 68°
2026-04-21 16:12 47.87470 17.29709 7908 ft 261 kts 68°
2026-04-21 16:12 47.88071 17.32251 7633 ft 260 kts 68°
2026-04-21 16:13 47.88671 17.34789 7371 ft 258 kts 68°
2026-04-21 16:13 47.89247 17.37226 7270 ft 250 kts 68°
2026-04-21 16:13 47.89817 17.39642 7153 ft 243 kts 67°
2026-04-21 16:13 47.90303 17.42016 7032 ft 239 kts 81°
2026-04-21 16:14 47.90068 17.44431 6937 ft 238 kts 110°
2026-04-21 16:14 47.89154 17.46471 6955 ft 239 kts 129°
2026-04-21 16:14 47.88005 17.48280 6982 ft 248 kts 131°
2026-04-21 16:14 47.86815 17.50216 6973 ft 250 kts 118°
2026-04-21 16:15 47.86351 17.52585 6926 ft 240 kts 84°
2026-04-21 16:15 47.86787 17.54898 6844 ft 229 kts 57°
2026-04-21 16:15 47.87756 17.56739 6589 ft 226 kts 43°
2026-04-21 16:15 47.88886 17.58359 6311 ft 225 kts 36°
2026-04-21 16:16 47.90297 17.59210 6016 ft 222 kts
2026-04-21 16:16 47.91772 17.58518 5725 ft 224 kts 331°
2026-04-21 16:16 47.93072 17.57245 5476 ft 224 kts 328°
2026-04-21 16:16 47.94304 17.55891 5214 ft 224 kts 326°
2026-04-21 16:17 47.95515 17.54475 4968 ft 224 kts 322°
2026-04-21 16:17 47.96674 17.52912 4688 ft 225 kts 319°
2026-04-21 16:17 47.97781 17.51262 4440 ft 224 kts 317°
2026-04-21 16:17 47.98860 17.49591 4197 ft 223 kts 316°
2026-04-21 16:18 47.99930 17.47918 3957 ft 223 kts 316°
2026-04-21 16:18 48.00985 17.46265 3855 ft 215 kts 316°
2026-04-21 16:18 48.01987 17.44695 3768 ft 203 kts 316°
2026-04-21 16:18 48.02955 17.43182 3491 ft 201 kts 316°
2026-04-21 16:19 48.03923 17.41672 3175 ft 200 kts 316°
2026-04-21 16:19 48.04861 17.40207 3034 ft 192 kts 316°
2026-04-21 16:19 48.05779 17.38774 2785 ft 190 kts 316°
2026-04-21 16:19 48.06668 17.37384 2672 ft 181 kts 316°
2026-04-21 16:20 48.07541 17.36022 2568 ft 183 kts 316°
2026-04-21 16:20 48.08404 17.34676 2514 ft 173 kts 317°
2026-04-21 16:20 48.09210 17.33416 2367 ft 163 kts 317°
2026-04-21 16:20 48.09986 17.32205 2172 ft 160 kts 317°
2026-04-21 16:21 48.10749 17.31016 1955 ft 156 kts 317°
2026-04-21 16:21 48.11480 17.29876 1754 ft 151 kts 317°
2026-04-21 16:21 48.12204 17.28749 1531 ft 149 kts 317°
2026-04-21 16:21 48.12915 17.27641 1329 ft 148 kts 317°
2026-04-21 16:22 48.13385 17.26907 1184 ft 147 kts 317°
2026-04-21 16:22 48.14320 17.25449 884 ft 143 kts 317°
2026-04-21 16:22 48.15001 17.24388 697 ft 141 kts 317°
2026-04-21 16:22 48.15675 17.23319 501 ft 140 kts 317°
2026-04-21 16:23 48.16331 17.22314 430 ft 121 kts 315°
2026-04-21 16:23 48.16812 17.21570 421 ft 78 kts 314°
2026-04-21 16:23 48.17073 17.21170 425 ft 33 kts 314°
2026-04-21 16:23 48.17113 17.21000 422 ft 16 kts 232°
2026-04-21 16:24 48.17055 17.20909 425 ft 0 kts 227°
2026-04-21 16:24 48.17049 17.20900 425 ft 3 kts 227°
2026-04-21 16:25 48.17021 17.20855 430 ft 9 kts 227°
2026-04-21 16:25 48.16983 17.20795 425 ft 15 kts 227°
2026-04-21 16:25 48.16901 17.20664 426 ft 18 kts 226°
2026-04-21 16:25 48.16817 17.20530 429 ft 18 kts 227°
2026-04-21 16:26 48.16734 17.20396 428 ft 17 kts 228°
2026-04-21 16:26 48.16767 17.20281 426 ft 13 kts 315°
2026-04-21 16:26 48.16829 17.20185 425 ft 12 kts 314°
2026-04-21 16:26 48.16851 17.20104 425 ft 7 kts 299°
2026-04-21 16:27 48.16884 17.20052 431 ft 3 kts 314°
2026-04-21 16:27 48.16886 17.20047 421 ft 0 kts 314°